Date,TemperatureHighF,TemperatureAvgF,TemperatureLowF,DewpointHighF,DewpointAvgF,DewpointLowF,HumidityHigh,HumidityAvg,HumidityLow,PressureMaxIn,PressureMinIn,WindSpeedMaxMPH,WindSpeedAvgMPH,GustSpeedMaxMPH,PrecipitationSumIn
2013-6-1,59.7,51.1,46.2,40.9,39.1,37.5,76,64,47,29.85,29.76,2,2,2,0.00
2013-6-2,57.4,48.5,44.8,46.5,41.1,37.5,89,76,53,29.88,29.68,3,1,3,0.62
2013-6-3,64.6,53.1,43.2,40.7,36.2,31.4,76,55,35,29.68,29.35,8,2,8,0.00
2013-6-4,64.0,53.7,44.2,39.7,34.2,29.1,74,49,31,29.44,29.26,10,2,10,0.00
2013-6-5,68.5,52.7,35.6,36.4,31.7,26.9,77,47,27,29.59,29.41,2,2,2,0.00
2013-6-6,72.0,58.0,37.9,36.6,31.3,26.5,66,39,24,29.59,29.26,10,2,10,0.00
2013-6-7,77.4,60.5,44.6,46.3,37.2,31.0,63,44,24,29.56,29.29,13,2,13,0.00
2013-6-8,77.0,61.9,44.4,44.5,38.1,32.5,67,43,26,29.71,29.56,10,2,10,0.00
2013-6-9,81.3,63.9,47.3,44.5,39.7,35.1,74,45,20,29.82,29.71,6,2,6,0.04
2013-6-10,79.7,64.9,48.7,44.2,39.3,33.7,69,41,23,29.85,29.68,12,2,12,0.00
2013-6-11,79.0,65.9,49.8,45.7,39.4,32.0,72,41,21,29.74,29.53,12,2,12,0.00
2013-6-12,81.7,68.5,51.4,42.9,37.8,33.1,53,34,21,29.65,29.47,3,3,3,0.00
2013-6-13,75.2,62.3,47.7,43.6,38.7,32.3,64,43,30,29.79,29.56,10,3,10,0.00
2013-6-14,73.9,61.7,43.3,43.9,39.4,34.7,77,47,31,29.91,29.79,11,2,11,0.00
2013-6-15,77.2,67.8,47.5,48.3,43.1,35.1,75,42,32,29.97,29.82,12,3,12,0.00
2013-6-16,83.7,69.4,52.3,50.9,47.0,39.4,70,47,30,29.88,29.68,10,2,10,0.00
2013-6-17,86.0,72.2,55.6,52.3,47.3,40.6,67,43,29,29.76,29.41,8,2,8,0.00
2013-6-18,88.7,76.2,59.9,45.2,36.8,28.5,54,26,13,29.50,29.29,17,4,17,0.00
2013-6-19,78.6,66.6,54.1,45.8,39.3,34.0,62,39,24,29.59,29.47,15,2,15,0.00
2013-6-20,77.2,63.1,49.3,48.4,43.5,38.7,75,51,32,29.68,29.53,10,2,10,0.00
2013-6-21,63.0,53.3,47.7,44.4,41.0,35.7,86,64,44,29.74,29.62,10,2,10,0.00
2013-6-22,74.3,59.3,44.2,44.3,40.0,35.2,83,53,25,29.71,29.35,8,1,8,0.00
2013-6-23,72.9,60.9,47.7,44.2,40.4,36.2,65,48,32,29.41,29.20,6,1,6,0.00
2013-6-24,79.2,63.9,51.8,48.8,42.3,36.5,63,47,30,29.32,29.17,10,2,11,0.00
2013-6-25,78.4,65.6,51.4,48.8,45.2,40.4,75,50,33,29.26,29.14,13,2,13,0.00
2013-6-26,83.5,70.3,54.1,52.4,47.9,43.2,77,48,28,29.47,29.20,10,2,10,0.00
2013-6-27,72.3,64.4,55.6,51.8,48.8,45.9,75,58,44,29.68,29.47,10,2,10,0.00
2013-6-28,60.1,56.8,54.7,50.7,48.7,46.7,83,74,67,29.82,29.68,6,1,6,0.00
2013-6-29,66.9,59.1,53.4,50.0,48.6,46.0,85,70,48,29.79,29.59,8,1,8,0.00
2013-6-30,59.0,56.3,54.0,50.6,47.9,45.3,76,73,71,29.68,29.62,5,1,5,0.00